| time (UTC) | temp C | wind direction | speed KPH | gust KPH | rain 1hr cm | rain 24hr cm | rain mn cm | humidity % | barometer mb |
| 20260509005709 | 23 | 11 | 1.6 | 8.0 | 0.00 | 0.00 | 0.00 | 20 | 1003.1 |
| 20260509005209 | 23 | 11 | 3.2 | 6.4 | 0.00 | 0.00 | 0.00 | 19 | 1003.1 |
| 20260509004709 | 23 | 11 | 1.6 | 9.7 | 0.00 | 0.00 | 0.00 | 19 | 1003.1 |
| 20260509004209 | 23 | 36 | 1.6 | 6.4 | 0.00 | 0.00 | 0.00 | 20 | 1003.2 |
| 20260509003709 | 23 | 36 | 3.2 | 9.7 | 0.00 | 0.00 | 0.00 | 19 | 1003.2 |
| 20260509003209 | 23 | 37 | 3.2 | 9.7 | 0.00 | 0.00 | 0.00 | 19 | 1003.2 |
| 20260509002709 | 23 | 38 | 1.6 | 6.4 | 0.00 | 0.00 | 0.00 | 20 | 1003.3 |
| 20260509002209 | 23 | 38 | 1.6 | 6.4 | 0.00 | 0.00 | 0.00 | 20 | 1003.2 |
| 20260509001709 | 23 | 37 | 1.6 | 3.2 | 0.00 | 0.00 | 0.00 | 21 | 1003.3 |
| 20260509001209 | 23 | 37 | 3.2 | 8.0 | 0.00 | 0.00 | 0.00 | 21 | 1003.3 |
| 20260509000709 | 23 | 32 | 3.2 | 11.3 | 0.00 | 0.00 | 0.00 | 21 | 1003.3 |
| 20260509000211 | 23 | 56 | 4.8 | 14.5 | 0.00 | 0.00 | 0.00 | 21 | 1003.4 |
| 20260508235709 | 23 | 45 | 4.8 | 11.3 | 0.00 | 0.00 | 0.00 | 20 | 1003.3 |
| 20260508235209 | 23 | 36 | 3.2 | 8.0 | 0.00 | 0.00 | 0.00 | 21 | 1003.3 |
| 20260508234709 | 23 | 34 | 1.6 | 9.7 | 0.00 | 0.00 | 0.00 | 21 | 1003.4 |
| 20260508234209 | 23 | 34 | 3.2 | 9.7 | 0.00 | 0.00 | 0.00 | 21 | 1003.4 |
| 20260508233709 | 23 | 34 | 4.8 | 8.0 | 0.00 | 0.00 | 0.00 | 21 | 1003.4 |
| 20260508233209 | 23 | 89 | 4.8 | 14.5 | 0.00 | 0.00 | 0.00 | 21 | 1003.3 |
| 20260508232709 | 23 | 19 | 4.8 | 11.3 | 0.00 | 0.00 | 0.00 | 21 | 1003.3 |
| 20260508232209 | 23 | 48 | 4.8 | 12.9 | 0.00 | 0.00 | 0.00 | 21 | 1003.4 |
| 20260508231709 | 23 | 44 | 4.8 | 9.7 | 0.00 | 0.00 | 0.00 | 20 | 1003.4 |
| 20260508231209 | 23 | 166 | 4.8 | 11.3 | 0.00 | 0.00 | 0.00 | 22 | 1003.4 |
| 20260508230709 | 23 | 74 | 4.8 | 14.5 | 0.00 | 0.00 | 0.00 | 21 | 1003.4 |
| 20260508230209 | 23 | 0 | 4.8 | 12.9 | 0.00 | 0.00 | 0.00 | 21 | 1003.5 |
| 20260508225711 | 23 | 57 | 4.8 | 12.9 | 0.00 | 0.00 | 0.00 | 21 | 1003.6 |
| 20260508225209 | 23 | 46 | 4.8 | 9.7 | 0.00 | 0.00 | 0.00 | 21 | 1003.7 |
| 20260508224709 | 23 | 23 | 4.8 | 14.5 | 0.00 | 0.00 | 0.00 | 21 | 1003.7 |
| 20260508224209 | 23 | 54 | 4.8 | 12.9 | 0.00 | 0.00 | 0.00 | 21 | 1003.7 |
| 20260508223709 | 23 | 80 | 6.4 | 11.3 | 0.00 | 0.00 | 0.00 | 21 | 1003.9 |
| 20260508223209 | 23 | 44 | 6.4 | 16.1 | 0.00 | 0.00 | 0.00 | 21 | 1003.9 |
| 20260508222709 | 23 | 28 | 4.8 | 12.9 | 0.00 | 0.00 | 0.00 | 21 | 1003.9 |
| 20260508222209 | 23 | 68 | 4.8 | 14.5 | 0.00 | 0.00 | 0.00 | 21 | 1003.9 |
| 20260508221709 | 23 | 61 | 4.8 | 14.5 | 0.00 | 0.00 | 0.00 | 22 | 1004.0 |
| 20260508221209 | 23 | 59 | 4.8 | 12.9 | 0.00 | 0.00 | 0.00 | 22 | 1004.1 |
| 20260508220709 | 23 | 50 | 4.8 | 16.1 | 0.00 | 0.00 | 0.00 | 22 | 1004.2 |
| 20260508220209 | 23 | 231 | 3.2 | 9.7 | 0.00 | 0.00 | 0.00 | 22 | 1004.2 |
| 20260508215709 | 23 | 204 | 4.8 | 11.3 | 0.00 | 0.00 | 0.00 | 24 | 1004.2 |
| 20260508215209 | 23 | 43 | 4.8 | 16.1 | 0.00 | 0.00 | 0.00 | 22 | 1004.5 |
| 20260508214709 | 23 | 48 | 4.8 | 12.9 | 0.00 | 0.00 | 0.00 | 22 | 1004.5 |
| 20260508214209 | 23 | 39 | 4.8 | 12.9 | 0.00 | 0.00 | 0.00 | 23 | 1004.4 |
| 20260508213709 | 23 | 61 | 4.8 | 12.9 | 0.00 | 0.00 | 0.00 | 22 | 1004.6 |
| 20260508213209 | 22 | 52 | 4.8 | 8.0 | 0.00 | 0.00 | 0.00 | 22 | 1004.7 |
| 20260508212709 | 22 | 22 | 6.4 | 16.1 | 0.00 | 0.00 | 0.00 | 23 | 1004.7 |
| 20260508212209 | 22 | 56 | 4.8 | 14.5 | 0.00 | 0.00 | 0.00 | 23 | 1004.8 |
| 20260508211709 | 22 | 107 | 4.8 | 12.9 | 0.00 | 0.00 | 0.00 | 22 | 1004.7 |
| 20260508211209 | 22 | 169 | 4.8 | 14.5 | 0.00 | 0.00 | 0.00 | 23 | 1004.8 |
| 20260508210709 | 22 | 52 | 6.4 | 14.5 | 0.00 | 0.00 | 0.00 | 23 | 1004.9 |
| 20260508210209 | 22 | 24 | 8.0 | 17.7 | 0.00 | 0.00 | 0.00 | 23 | 1004.9 |
| 20260508205709 | 22 | 60 | 6.4 | 17.7 | 0.00 | 0.00 | 0.00 | 22 | 1005.0 |
| 20260508205209 | 22 | 19 | 4.8 | 16.1 | 0.00 | 0.00 | 0.00 | 24 | 1005.1 |
| 20260508204709 | 22 | 186 | 6.4 | 16.1 | 0.00 | 0.00 | 0.00 | 24 | 1005.1 |
| 20260508204209 | 22 | 100 | 6.4 | 17.7 | 0.00 | 0.00 | 0.00 | 24 | 1005.1 |
| 20260508203709 | 22 | 78 | 6.4 | 14.5 | 0.00 | 0.00 | 0.00 | 23 | 1005.2 |
| 20260508203209 | 22 | 63 | 6.4 | 19.3 | 0.00 | 0.00 | 0.00 | 23 | 1005.2 |
| 20260508202709 | 23 | 59 | 6.4 | 14.5 | 0.00 | 0.00 | 0.00 | 22 | 1005.2 |
| 20260508202210 | 23 | 11 | 4.8 | 12.9 | 0.00 | 0.00 | 0.00 | 22 | 1005.3 |
| 20260508201709 | 23 | 34 | 4.8 | 8.0 | 0.00 | 0.00 | 0.00 | 23 | 1005.3 |
| 20260508201210 | 23 | 66 | 4.8 | 11.3 | 0.00 | 0.00 | 0.00 | 23 | 1005.4 |
| 20260508200709 | 23 | 118 | 4.8 | 9.7 | 0.00 | 0.00 | 0.00 | 24 | 1005.5 |
| 20260508200210 | 23 | 121 | 3.2 | 14.5 | 0.00 | 0.00 | 0.00 | 23 | 1005.5 |
| 20260508195710 | 23 | 42 | 3.2 | 11.3 | 0.00 | 0.00 | 0.00 | 23 | 1005.5 |
| 20260508195210 | 23 | 318 | 3.2 | 8.0 | 0.00 | 0.00 | 0.00 | 23 | 1005.5 |
| 20260508194710 | 23 | 315 | 3.2 | 8.0 | 0.00 | 0.00 | 0.00 | 21 | 1005.5 |
| 20260508194210 | 23 | 315 | 3.2 | 11.3 | 0.00 | 0.00 | 0.00 | 25 | 1005.6 |
| 20260508193710 | 23 | 315 | 1.6 | 9.7 | 0.00 | 0.00 | 0.00 | 23 | 1005.5 |
| 20260508193210 | 23 | 314 | 3.2 | 11.3 | 0.00 | 0.00 | 0.00 | 23 | 1005.6 |
| 20260508192710 | 23 | 313 | 3.2 | 9.7 | 0.00 | 0.00 | 0.00 | 25 | 1005.7 |
| 20260508192210 | 23 | 313 | 3.2 | 8.0 | 0.00 | 0.00 | 0.00 | 22 | 1005.6 |
| 20260508191710 | 23 | 314 | 4.8 | 14.5 | 0.00 | 0.00 | 0.00 | 23 | 1005.6 |
| 20260508191210 | 23 | 311 | 3.2 | 12.9 | 0.00 | 0.00 | 0.00 | 23 | 1005.6 |
| 20260508190710 | 23 | 306 | 1.6 | 9.7 | 0.00 | 0.00 | 0.00 | 24 | 1005.6 |
| 20260508190210 | 22 | 307 | 1.6 | 12.9 | 0.00 | 0.00 | 0.00 | 23 | 1005.9 |
| 20260508185710 | 22 | 312 | 1.6 | 14.5 | 0.00 | 0.00 | 0.00 | 24 | 1005.9 |
| 20260508185210 | 22 | 311 | 3.2 | 8.0 | 0.00 | 0.00 | 0.00 | 27 | 1005.9 |
| 20260508184710 | 22 | 311 | 3.2 | 11.3 | 0.00 | 0.00 | 0.00 | 24 | 1006.0 |
| 20260508184210 | 22 | 284 | 4.8 | 14.5 | 0.00 | 0.00 | 0.00 | 24 | 1006.1 |
| 20260508183710 | 22 | 285 | 3.2 | 14.5 | 0.00 | 0.00 | 0.00 | 23 | 1006.1 |
| 20260508183210 | 22 | 315 | 4.8 | 8.0 | 0.00 | 0.00 | 0.00 | 25 | 1006.1 |
| 20260508182710 | 22 | 332 | 4.8 | 16.1 | 0.00 | 0.00 | 0.00 | 25 | 1006.2 |
| 20260508182210 | 22 | 327 | 3.2 | 12.9 | 0.00 | 0.00 | 0.00 | 26 | 1006.2 |
| 20260508181710 | 21 | 5 | 3.2 | 9.7 | 0.00 | 0.00 | 0.00 | 24 | 1006.3 |
| 20260508181210 | 21 | 24 | 3.2 | 11.3 | 0.00 | 0.00 | 0.00 | 25 | 1006.4 |
| 20260508180710 | 21 | 36 | 1.6 | 14.5 | 0.00 | 0.00 | 0.00 | 25 | 1006.4 |
| 20260508180210 | 21 | 355 | 1.6 | 9.7 | 0.00 | 0.00 | 0.00 | 27 | 1006.3 |
| 20260508175710 | 21 | 18 | 3.2 | 11.3 | 0.00 | 0.00 | 0.00 | 26 | 1006.5 |
| 20260508175210 | 21 | 328 | 3.2 | 17.7 | 0.00 | 0.00 | 0.00 | 24 | 1006.6 |
| 20260508174710 | 21 | 325 | 1.6 | 8.0 | 0.00 | 0.00 | 0.00 | 27 | 1006.6 |
| 20260508174210 | 21 | 15 | 1.6 | 6.4 | 0.00 | 0.00 | 0.00 | 26 | 1006.6 |
| 20260508173710 | 21 | 11 | 3.2 | 14.5 | 0.00 | 0.00 | 0.00 | 26 | 1006.7 |
| 20260508173210 | 20 | 67 | 1.6 | 14.5 | 0.00 | 0.00 | 0.00 | 27 | 1006.7 |
| 20260508172710 | 20 | 34 | 0.0 | 6.4 | 0.00 | 0.00 | 0.00 | 29 | 1006.7 |
| 20260508172210 | 20 | 57 | 0.0 | 3.2 | 0.00 | 0.00 | 0.00 | 31 | 1006.8 |
| 20260508171710 | 20 | 57 | 0.0 | 11.3 | 0.00 | 0.00 | 0.00 | 32 | 1006.8 |
| 20260508171210 | 20 | 70 | 0.0 | 4.8 | 0.00 | 0.00 | 0.00 | 30 | 1006.8 |
| 20260508170710 | 20 | 70 | 0.0 | 4.8 | 0.00 | 0.00 | 0.00 | 32 | 1006.8 |
| 20260508170210 | 20 | 71 | 0.0 | 4.8 | 0.00 | 0.00 | 0.00 | 32 | 1006.6 |
| 20260508165710 | 20 | 71 | 0.0 | 6.4 | 0.00 | 0.00 | 0.00 | 31 | 1006.6 |
| 20260508165210 | 20 | 71 | 0.0 | 6.4 | 0.00 | 0.00 | 0.00 | 32 | 1006.6 |
| 20260508164710 | 20 | 71 | 0.0 | 1.6 | 0.00 | 0.00 | 0.00 | 33 | 1006.5 |
| 20260508164210 | 20 | 71 | 0.0 | 3.2 | 0.00 | 0.00 | 0.00 | 33 | 1006.5 |
| 20260508163710 | 20 | 70 | 0.0 | 3.2 | 0.00 | 0.00 | 0.00 | 34 | 1006.5 |
| 20260508163210 | 20 | 70 | 0.0 | 3.2 | 0.00 | 0.00 | 0.00 | 33 | 1006.5 |
| 20260508162710 | 20 | 70 | 0.0 | 3.2 | 0.00 | 0.00 | 0.00 | 34 | 1006.5 |
| 20260508162210 | 20 | 70 | 0.0 | 4.8 | 0.00 | 0.00 | 0.00 | 34 | 1006.5 |
| 20260508161710 | 19 | 69 | 0.0 | 1.6 | 0.00 | 0.00 | 0.00 | 35 | 1006.4 |
| 20260508161210 | 19 | 69 | 0.0 | 4.8 | 0.00 | 0.00 | 0.00 | 32 | 1006.5 |
| 20260508160710 | 19 | 69 | 0.0 | 3.2 | 0.00 | 0.00 | 0.00 | 36 | 1006.4 |
| 20260508160210 | 19 | 69 | 0.0 | 0.0 | 0.00 | 0.00 | 0.00 | 34 | 1006.4 |
| 20260508155710 | 19 | 69 | 0.0 | 0.0 | 0.00 | 0.00 | 0.00 | 35 | 1006.4 |
| 20260508155210 | 19 | 69 | 0.0 | 0.0 | 0.00 | 0.00 | 0.00 | 34 | 1006.3 |
| 20260508154710 | 19 | 69 | 0.0 | 1.6 | 0.00 | 0.00 | 0.00 | 36 | 1006.4 |
| 20260508154210 | 19 | 69 | 0.0 | 1.6 | 0.00 | 0.00 | 0.00 | 36 | 1006.4 |
| 20260508153710 | 19 | 69 | 0.0 | 0.0 | 0.00 | 0.00 | 0.00 | 36 | 1006.4 |
| 20260508153210 | 19 | 69 | 0.0 | 0.0 | 0.00 | 0.00 | 0.00 | 37 | 1006.4 |
| 20260508152710 | 19 | 69 | 0.0 | 0.0 | 0.00 | 0.00 | 0.00 | 38 | 1006.4 |
| 20260508152210 | 19 | 69 | 0.0 | 0.0 | 0.00 | 0.00 | 0.00 | 34 | 1006.3 |
| 20260508151710 | 19 | 69 | 0.0 | 0.0 | 0.00 | 0.00 | 0.00 | 37 | 1006.3 |
| 20260508151210 | 19 | 69 | 0.0 | 0.0 | 0.00 | 0.00 | 0.00 | 37 | 1006.3 |
| 20260508150710 | 19 | 69 | 0.0 | 0.0 | 0.00 | 0.00 | 0.00 | 37 | 1006.3 |
| 20260508150210 | 19 | 69 | 0.0 | 0.0 | 0.00 | 0.00 | 0.00 | 37 | 1006.2 |
| 20260508145710 | 19 | 69 | 0.0 | 0.0 | 0.00 | 0.00 | 0.00 | 39 | 1006.3 |
| 20260508145210 | 19 | 69 | 0.0 | 0.0 | 0.00 | 0.00 | 0.00 | 37 | 1006.3 |
| 20260508144710 | 19 | 69 | 0.0 | 0.0 | 0.00 | 0.00 | 0.00 | 37 | 1006.3 |
| 20260508144210 | 19 | 69 | 0.0 | 0.0 | 0.00 | 0.00 | 0.00 | 38 | 1006.3 |
| 20260508143710 | 18 | 69 | 0.0 | 0.0 | 0.00 | 0.00 | 0.00 | 36 | 1006.3 |
| 20260508143210 | 18 | 69 | 0.0 | 0.0 | 0.00 | 0.00 | 0.00 | 34 | 1006.2 |
| 20260508142710 | 18 | 69 | 0.0 | 0.0 | 0.00 | 0.00 | 0.00 | 36 | 1006.2 |
| 20260508142210 | 18 | 69 | 0.0 | 0.0 | 0.00 | 0.00 | 0.00 | 35 | 1006.2 |
| 20260508141710 | 18 | 69 | 0.0 | 0.0 | 0.00 | 0.00 | 0.00 | 36 | 1006.2 |
| 20260508141210 | 17 | 69 | 0.0 | 0.0 | 0.00 | 0.00 | 0.00 | 38 | 1006.2 |
| 20260508140710 | 17 | 69 | 0.0 | 0.0 | 0.00 | 0.00 | 0.00 | 41 | 1006.2 |
| 20260508140210 | 16 | 69 | 0.0 | 0.0 | 0.00 | 0.00 | 0.00 | 42 | 1006.2 |
| 20260508135710 | 15 | 69 | 0.0 | 0.0 | 0.00 | 0.00 | 0.00 | 45 | 1006.2 |
| 20260508135210 | 15 | 69 | 0.0 | 0.0 | 0.00 | 0.00 | 0.00 | 46 | 1006.3 |
| 20260508134710 | 14 | 69 | 0.0 | 0.0 | 0.00 | 0.00 | 0.00 | 52 | 1006.2 |
| 20260508134210 | 13 | 69 | 0.0 | 0.0 | 0.00 | 0.00 | 0.00 | 51 | 1006.1 |
| 20260508133712 | 13 | 69 | 0.0 | 0.0 | 0.00 | 0.00 | 0.00 | 51 | 1006.1 |
| 20260508133210 | 13 | 69 | 0.0 | 0.0 | 0.00 | 0.00 | 0.00 | 49 | 1006.1 |
| 20260508132710 | 12 | 69 | 0.0 | 0.0 | 0.00 | 0.00 | 0.00 | 49 | 1006.0 |
| 20260508132210 | 12 | 69 | 0.0 | 0.0 | 0.00 | 0.00 | 0.00 | 50 | 1006.1 |
| 20260508131710 | 12 | 69 | 0.0 | 0.0 | 0.00 | 0.00 | 0.00 | 50 | 1006.0 |
| 20260508131210 | 12 | 69 | 0.0 | 0.0 | 0.00 | 0.00 | 0.00 | 52 | 1006.1 |
| 20260508130710 | 12 | 69 | 0.0 | 0.0 | 0.00 | 0.00 | 0.00 | 52 | 1006.0 |
| 20260508130210 | 12 | 69 | 0.0 | 0.0 | 0.00 | 0.00 | 0.00 | 52 | 1005.9 |
| 20260508125710 | 12 | 69 | 0.0 | 0.0 | 0.00 | 0.00 | 0.00 | 52 | 1005.9 |
| 20260508125210 | 11 | 69 | 0.0 | 0.0 | 0.00 | 0.00 | 0.00 | 52 | 1005.8 |
| 20260508124710 | 11 | 69 | 0.0 | 0.0 | 0.00 | 0.00 | 0.00 | 52 | 1005.7 |
| 20260508124210 | 11 | 69 | 0.0 | 0.0 | 0.00 | 0.00 | 0.00 | 51 | 1005.6 |
| 20260508123710 | 11 | 69 | 0.0 | 0.0 | 0.00 | 0.00 | 0.00 | 51 | 1005.6 |
| 20260508123210 | 11 | 69 | 0.0 | 0.0 | 0.00 | 0.00 | 0.00 | 51 | 1005.5 |
| 20260508122710 | 11 | 69 | 0.0 | 0.0 | 0.00 | 0.00 | 0.00 | 50 | 1005.5 |
| 20260508122210 | 11 | 69 | 0.0 | 0.0 | 0.00 | 0.00 | 0.00 | 51 | 1005.5 |
| 20260508121710 | 11 | 69 | 0.0 | 0.0 | 0.00 | 0.00 | 0.00 | 51 | 1005.5 |
| 20260508121210 | 11 | 69 | 0.0 | 0.0 | 0.00 | 0.00 | 0.00 | 50 | 1005.4 |
| 20260508120710 | 11 | 69 | 0.0 | 0.0 | 0.00 | 0.00 | 0.00 | 51 | 1005.4 |
| 20260508120210 | 11 | 69 | 0.0 | 0.0 | 0.00 | 0.00 | 0.00 | 53 | 1005.4 |
| 20260508115710 | 11 | 69 | 0.0 | 0.0 | 0.00 | 0.00 | 0.00 | 56 | 1005.4 |
| 20260508115210 | 11 | 69 | 0.0 | 0.0 | 0.00 | 0.00 | 0.00 | 53 | 1005.4 |
| 20260508114710 | 11 | 69 | 0.0 | 0.0 | 0.00 | 0.00 | 0.00 | 53 | 1005.3 |
| 20260508114210 | 11 | 69 | 0.0 | 0.0 | 0.00 | 0.00 | 0.00 | 51 | 1005.4 |
| 20260508113710 | 11 | 69 | 0.0 | 0.0 | 0.00 | 0.00 | 0.00 | 51 | 1005.4 |
| 20260508113210 | 11 | 69 | 0.0 | 0.0 | 0.00 | 0.00 | 0.00 | 52 | 1005.4 |
| 20260508112710 | 11 | 69 | 0.0 | 0.0 | 0.00 | 0.00 | 0.00 | 49 | 1005.4 |
| 20260508112210 | 12 | 69 | 0.0 | 0.0 | 0.00 | 0.00 | 0.00 | 49 | 1005.3 |
| 20260508111710 | 12 | 69 | 0.0 | 0.0 | 0.00 | 0.00 | 0.00 | 48 | 1005.2 |
| 20260508111210 | 12 | 69 | 0.0 | 0.0 | 0.00 | 0.00 | 0.00 | 48 | 1005.1 |
| 20260508110710 | 12 | 69 | 0.0 | 0.0 | 0.00 | 0.00 | 0.00 | 50 | 1005.1 |
| 20260508110210 | 12 | 69 | 0.0 | 0.0 | 0.00 | 0.00 | 0.00 | 51 | 1005.0 |
| 20260508105710 | 12 | 69 | 0.0 | 0.0 | 0.00 | 0.00 | 0.00 | 47 | 1005.0 |
| 20260508105210 | 12 | 69 | 0.0 | 0.0 | 0.00 | 0.00 | 0.00 | 47 | 1005.0 |
| 20260508104710 | 12 | 69 | 0.0 | 0.0 | 0.00 | 0.00 | 0.00 | 47 | 1005.0 |
| 20260508104210 | 12 | 69 | 0.0 | 0.0 | 0.00 | 0.00 | 0.00 | 49 | 1005.0 |
| 20260508103710 | 12 | 69 | 0.0 | 0.0 | 0.00 | 0.00 | 0.00 | 47 | 1005.1 |
| 20260508103210 | 13 | 69 | 0.0 | 0.0 | 0.00 | 0.00 | 0.00 | 46 | 1005.0 |
| 20260508102710 | 13 | 69 | 0.0 | 0.0 | 0.00 | 0.00 | 0.00 | 45 | 1005.1 |
| 20260508102210 | 13 | 69 | 0.0 | 0.0 | 0.00 | 0.00 | 0.00 | 45 | 1005.0 |
| 20260508101710 | 13 | 69 | 0.0 | 0.0 | 0.00 | 0.00 | 0.00 | 44 | 1005.0 |
| 20260508101210 | 13 | 69 | 0.0 | 0.0 | 0.00 | 0.00 | 0.00 | 43 | 1005.0 |
| 20260508100710 | 13 | 69 | 0.0 | 0.0 | 0.00 | 0.00 | 0.00 | 43 | 1004.9 |
| 20260508100211 | 13 | 69 | 0.0 | 0.0 | 0.00 | 0.00 | 0.00 | 43 | 1005.0 |
| 20260508095710 | 13 | 69 | 0.0 | 0.0 | 0.00 | 0.00 | 0.00 | 42 | 1004.9 |
| 20260508095210 | 13 | 69 | 0.0 | 0.0 | 0.00 | 0.00 | 0.00 | 42 | 1004.9 |
| 20260508094710 | 13 | 69 | 0.0 | 0.0 | 0.00 | 0.00 | 0.00 | 41 | 1004.9 |
| 20260508094210 | 13 | 69 | 0.0 | 0.0 | 0.00 | 0.00 | 0.00 | 41 | 1004.9 |
| 20260508093710 | 13 | 69 | 0.0 | 0.0 | 0.00 | 0.00 | 0.00 | 40 | 1004.8 |
| 20260508093210 | 13 | 69 | 0.0 | 0.0 | 0.00 | 0.00 | 0.00 | 41 | 1004.8 |
| 20260508092711 | 13 | 69 | 0.0 | 0.0 | 0.00 | 0.00 | 0.00 | 41 | 1004.9 |
| 20260508092211 | 13 | 69 | 0.0 | 0.0 | 0.00 | 0.00 | 0.00 | 42 | 1004.8 |
| 20260508091711 | 13 | 69 | 0.0 | 0.0 | 0.00 | 0.00 | 0.00 | 42 | 1004.8 |
| 20260508091211 | 13 | 69 | 0.0 | 0.0 | 0.00 | 0.00 | 0.00 | 42 | 1004.9 |
| 20260508090711 | 12 | 69 | 0.0 | 0.0 | 0.00 | 0.00 | 0.00 | 44 | 1004.9 |
| 20260508090211 | 12 | 69 | 0.0 | 0.0 | 0.00 | 0.00 | 0.00 | 44 | 1004.8 |
| 20260508085711 | 13 | 69 | 0.0 | 0.0 | 0.00 | 0.00 | 0.00 | 43 | 1004.8 |
| 20260508085211 | 13 | 69 | 0.0 | 0.0 | 0.00 | 0.00 | 0.00 | 42 | 1004.8 |
| 20260508084711 | 13 | 69 | 0.0 | 0.0 | 0.00 | 0.00 | 0.00 | 43 | 1004.8 |
| 20260508084211 | 13 | 69 | 0.0 | 0.0 | 0.00 | 0.00 | 0.00 | 42 | 1004.8 |
| 20260508083711 | 13 | 69 | 0.0 | 0.0 | 0.00 | 0.00 | 0.00 | 43 | 1004.8 |
| 20260508083211 | 13 | 69 | 0.0 | 0.0 | 0.00 | 0.00 | 0.00 | 42 | 1004.8 |
| 20260508082711 | 13 | 69 | 0.0 | 0.0 | 0.00 | 0.00 | 0.00 | 42 | 1004.8 |
| 20260508082211 | 13 | 69 | 0.0 | 0.0 | 0.00 | 0.00 | 0.00 | 42 | 1004.9 |
| 20260508081711 | 13 | 69 | 0.0 | 0.0 | 0.00 | 0.00 | 0.00 | 43 | 1004.9 |
| 20260508081211 | 13 | 69 | 0.0 | 0.0 | 0.00 | 0.00 | 0.00 | 41 | 1004.9 |
| 20260508080711 | 13 | 69 | 0.0 | 0.0 | 0.00 | 0.00 | 0.00 | 41 | 1005.0 |
| 20260508080211 | 13 | 69 | 0.0 | 0.0 | 0.00 | 0.00 | 0.00 | 41 | 1005.0 |
| 20260508075711 | 14 | 69 | 0.0 | 0.0 | 0.00 | 0.00 | 0.00 | 40 | 1005.1 |
| 20260508075211 | 14 | 69 | 0.0 | 0.0 | 0.00 | 0.00 | 0.00 | 39 | 1005.0 |
| 20260508074711 | 14 | 69 | 0.0 | 0.0 | 0.00 | 0.00 | 0.00 | 40 | 1005.1 |
| 20260508074211 | 14 | 69 | 0.0 | 0.0 | 0.00 | 0.00 | 0.00 | 40 | 1005.1 |
| 20260508073711 | 14 | 69 | 0.0 | 0.0 | 0.00 | 0.00 | 0.00 | 40 | 1005.0 |
| 20260508073211 | 14 | 69 | 0.0 | 0.0 | 0.00 | 0.00 | 0.00 | 40 | 1005.1 |
| 20260508072711 | 14 | 69 | 0.0 | 0.0 | 0.00 | 0.00 | 0.00 | 40 | 1005.0 |
| 20260508072211 | 14 | 69 | 0.0 | 0.0 | 0.00 | 0.00 | 0.00 | 40 | 1005.0 |
| 20260508071711 | 14 | 69 | 0.0 | 0.0 | 0.00 | 0.00 | 0.00 | 40 | 1004.9 |
| 20260508071211 | 14 | 69 | 0.0 | 0.0 | 0.00 | 0.00 | 0.00 | 40 | 1005.0 |
| 20260508070711 | 14 | 69 | 0.0 | 0.0 | 0.00 | 0.00 | 0.00 | 39 | 1005.1 |
| 20260508070211 | 14 | 69 | 0.0 | 0.0 | 0.00 | 0.00 | 0.00 | 39 | 1005.1 |
| 20260508065711 | 15 | 69 | 0.0 | 0.0 | 0.00 | 0.00 | 0.00 | 38 | 1005.1 |
| 20260508065211 | 14 | 69 | 0.0 | 0.0 | 0.00 | 0.00 | 0.00 | 39 | 1005.1 |
| 20260508064711 | 14 | 69 | 0.0 | 0.0 | 0.00 | 0.00 | 0.00 | 39 | 1005.0 |
| 20260508064211 | 14 | 69 | 0.0 | 0.0 | 0.00 | 0.00 | 0.00 | 40 | 1005.0 |
| 20260508063711 | 14 | 69 | 0.0 | 0.0 | 0.00 | 0.00 | 0.00 | 40 | 1005.1 |
| 20260508063211 | 14 | 69 | 0.0 | 0.0 | 0.00 | 0.00 | 0.00 | 40 | 1005.0 |
| 20260508062711 | 14 | 69 | 0.0 | 0.0 | 0.00 | 0.00 | 0.00 | 39 | 1004.9 |
| 20260508062211 | 14 | 69 | 0.0 | 0.0 | 0.00 | 0.00 | 0.00 | 40 | 1004.9 |
| 20260508061711 | 14 | 69 | 0.0 | 0.0 | 0.00 | 0.00 | 0.00 | 40 | 1004.8 |
| 20260508061211 | 14 | 69 | 0.0 | 0.0 | 0.00 | 0.00 | 0.00 | 40 | 1004.8 |
| 20260508060711 | 15 | 69 | 0.0 | 0.0 | 0.00 | 0.00 | 0.00 | 39 | 1004.8 |
| 20260508060211 | 15 | 69 | 0.0 | 0.0 | 0.00 | 0.00 | 0.00 | 38 | 1004.8 |
| 20260508055711 | 15 | 69 | 0.0 | 0.0 | 0.00 | 0.00 | 0.00 | 38 | 1004.7 |
| 20260508055211 | 15 | 69 | 0.0 | 0.0 | 0.00 | 0.00 | 0.00 | 39 | 1004.6 |
| 20260508054711 | 15 | 69 | 0.0 | 0.0 | 0.00 | 0.00 | 0.00 | 38 | 1004.7 |
| 20260508054211 | 15 | 69 | 0.0 | 0.0 | 0.00 | 0.00 | 0.00 | 37 | 1004.7 |
| 20260508053711 | 15 | 69 | 0.0 | 0.0 | 0.00 | 0.00 | 0.00 | 36 | 1004.6 |
| 20260508053211 | 15 | 69 | 0.0 | 0.0 | 0.00 | 0.00 | 0.00 | 36 | 1004.7 |
| 20260508052711 | 15 | 69 | 0.0 | 0.0 | 0.00 | 0.00 | 0.00 | 36 | 1004.7 |
| 20260508052211 | 15 | 69 | 0.0 | 0.0 | 0.00 | 0.00 | 0.00 | 36 | 1004.7 |
| 20260508051711 | 15 | 69 | 0.0 | 0.0 | 0.00 | 0.00 | 0.00 | 36 | 1004.8 |
| 20260508051211 | 15 | 69 | 0.0 | 0.0 | 0.00 | 0.00 | 0.00 | 36 | 1004.8 |
| 20260508050711 | 15 | 69 | 0.0 | 0.0 | 0.00 | 0.00 | 0.00 | 36 | 1004.7 |
| 20260508050211 | 15 | 69 | 0.0 | 0.0 | 0.00 | 0.00 | 0.00 | 37 | 1004.9 |
| 20260508045711 | 15 | 69 | 0.0 | 0.0 | 0.00 | 0.00 | 0.00 | 36 | 1004.8 |
| 20260508045211 | 15 | 69 | 0.0 | 0.0 | 0.00 | 0.00 | 0.00 | 37 | 1004.8 |
| 20260508044711 | 15 | 69 | 0.0 | 0.0 | 0.00 | 0.00 | 0.00 | 36 | 1004.8 |
| 20260508044211 | 15 | 69 | 0.0 | 0.0 | 0.00 | 0.00 | 0.00 | 36 | 1004.8 |
| 20260508043711 | 15 | 69 | 0.0 | 0.0 | 0.00 | 0.00 | 0.00 | 37 | 1004.9 |
| 20260508043211 | 15 | 69 | 0.0 | 0.0 | 0.00 | 0.00 | 0.00 | 36 | 1004.9 |
| 20260508042711 | 15 | 69 | 0.0 | 0.0 | 0.00 | 0.00 | 0.00 | 36 | 1004.9 |
| 20260508042211 | 16 | 69 | 0.0 | 0.0 | 0.00 | 0.00 | 0.00 | 36 | 1004.9 |
| 20260508041711 | 15 | 69 | 0.0 | 0.0 | 0.00 | 0.00 | 0.00 | 36 | 1004.9 |
| 20260508041211 | 16 | 69 | 0.0 | 0.0 | 0.00 | 0.00 | 0.00 | 36 | 1005.0 |
| 20260508040711 | 15 | 69 | 0.0 | 0.0 | 0.00 | 0.00 | 0.00 | 36 | 1005.0 |
| 20260508040211 | 15 | 69 | 0.0 | 0.0 | 0.00 | 0.00 | 0.00 | 36 | 1004.9 |
| 20260508035711 | 16 | 69 | 0.0 | 0.0 | 0.00 | 0.00 | 0.00 | 36 | 1004.9 |
| 20260508035211 | 16 | 69 | 0.0 | 0.0 | 0.00 | 0.00 | 0.00 | 36 | 1004.8 |
| 20260508034711 | 16 | 69 | 0.0 | 0.0 | 0.00 | 0.00 | 0.00 | 35 | 1004.8 |
| 20260508034211 | 16 | 69 | 0.0 | 0.0 | 0.00 | 0.00 | 0.00 | 36 | 1004.9 |
| 20260508033711 | 16 | 69 | 0.0 | 0.0 | 0.00 | 0.00 | 0.00 | 35 | 1004.8 |
| 20260508033211 | 16 | 69 | 0.0 | 0.0 | 0.00 | 0.00 | 0.00 | 35 | 1004.8 |
| 20260508032711 | 16 | 69 | 0.0 | 0.0 | 0.00 | 0.00 | 0.00 | 35 | 1004.8 |
| 20260508032211 | 16 | 69 | 0.0 | 0.0 | 0.00 | 0.00 | 0.00 | 35 | 1004.7 |
| 20260508031711 | 16 | 69 | 0.0 | 0.0 | 0.00 | 0.00 | 0.00 | 35 | 1004.6 |
| 20260508031211 | 16 | 69 | 0.0 | 0.0 | 0.00 | 0.00 | 0.00 | 34 | 1004.6 |
| 20260508030711 | 17 | 69 | 0.0 | 0.0 | 0.00 | 0.00 | 0.00 | 34 | 1004.6 |
| 20260508030211 | 17 | 69 | 0.0 | 0.0 | 0.00 | 0.00 | 0.00 | 34 | 1004.6 |
| 20260508025711 | 17 | 69 | 0.0 | 0.0 | 0.00 | 0.00 | 0.00 | 33 | 1004.6 |
| 20260508025211 | 17 | 69 | 0.0 | 0.0 | 0.00 | 0.00 | 0.00 | 33 | 1004.6 |
| 20260508024711 | 17 | 69 | 0.0 | 0.0 | 0.00 | 0.00 | 0.00 | 32 | 1004.6 |
| 20260508024211 | 18 | 69 | 0.0 | 0.0 | 0.00 | 0.00 | 0.00 | 32 | 1004.5 |
| 20260508023712 | 18 | 69 | 0.0 | 0.0 | 0.00 | 0.00 | 0.00 | 31 | 1004.5 |
| 20260508023211 | 18 | 69 | 0.0 | 0.0 | 0.00 | 0.00 | 0.00 | 31 | 1004.3 |
| 20260508022711 | 18 | 69 | 0.0 | 0.0 | 0.00 | 0.00 | 0.00 | 31 | 1004.4 |
| 20260508022211 | 18 | 69 | 0.0 | 0.0 | 0.00 | 0.00 | 0.00 | 32 | 1004.4 |
| 20260508021711 | 18 | 69 | 0.0 | 0.0 | 0.00 | 0.00 | 0.00 | 32 | 1004.4 |
| 20260508021211 | 18 | 69 | 0.0 | 0.0 | 0.00 | 0.00 | 0.00 | 31 | 1004.3 |
| 20260508020711 | 19 | 69 | 0.0 | 0.0 | 0.00 | 0.00 | 0.00 | 31 | 1004.3 |
| 20260508020211 | 19 | 69 | 0.0 | 0.0 | 0.00 | 0.00 | 0.00 | 31 | 1004.3 |
| 20260508015711 | 20 | 69 | 0.0 | 0.0 | 0.00 | 0.00 | 0.00 | 31 | 1004.3 |
| 20260508015211 | 20 | 69 | 0.0 | 0.0 | 0.00 | 0.00 | 0.00 | 30 | 1004.3 |
| 20260508014711 | 21 | 69 | 0.0 | 0.0 | 0.00 | 0.00 | 0.00 | 33 | 1004.3 |
| 20260508014211 | 21 | 69 | 0.0 | 0.0 | 0.00 | 0.00 | 0.00 | 28 | 1004.4 |
| 20260508013711 | 21 | 69 | 0.0 | 0.0 | 0.00 | 0.00 | 0.00 | 30 | 1004.3 |
| 20260508013211 | 21 | 69 | 0.0 | 0.0 | 0.00 | 0.00 | 0.00 | 29 | 1004.4 |
| 20260508012711 | 21 | 69 | 0.0 | 0.0 | 0.00 | 0.00 | 0.00 | 27 | 1004.4 |
| 20260508012211 | 21 | 69 | 0.0 | 0.0 | 0.00 | 0.00 | 0.00 | 28 | 1004.4 |
| 20260508011711 | 21 | 69 | 0.0 | 0.0 | 0.00 | 0.00 | 0.00 | 27 | 1004.4 |
| 20260508011211 | 21 | 69 | 0.0 | 0.0 | 0.00 | 0.00 | 0.00 | 27 | 1004.5 |
| 20260508010711 | 21 | 69 | 0.0 | 0.0 | 0.00 | 0.00 | 0.00 | 28 | 1004.4 |
| 20260508010211 | 21 | 69 | 0.0 | 0.0 | 0.00 | 0.00 | 0.00 | 27 | 1004.5 |